Capitol Logistics 442


KPHL
Philadelphia International Airport
Philadelphia, Pennsylvania, US
KCVG
Cincinnati/Northern Kentucky International Airport
Covington, Kentucky, US

Activity Log

Date Flight Route Aircraft Duration
09/23/2019 CPX442 MXE PENSY J110 FLIRT J6 MRB J6 COLNS GAVNN4 B738 1h 37m

Route Details

Aircraft Information
Primary: Boeing 737-800BCF
Backup: Not Available
Route Data
Distance: 440nm
Sched. Duration: 1h 47m
Avg. Duration: 1h 37m (-9m)
Times Flown: 1
Recm'd Route: MXE PENSY J110 FLIRT J6 MRB J6 COLNS GAVNN4
Planned Altitude: 32,000ft
Origin Wx: KPHL 170854Z 24015KT 10SM CLR 02/M04 A2965 RMK AO2 SLP039 T00171044 51020
Dest. Wx: KCVG 170933Z 23007KT 10SM OVC013 01/M01 A2977 RMK AO2 SNB03E19 P0000 T00061011
Notes:

Financial History
Total Freight: 25,872lbs
Average Load: 25,872lbs/flt
Fuel Used: 7,833lbs
Avg. Fuel Used: 7,833lbs/flt
Fuel Expense: $7,050
Avg. Fuel Expense: $7,050
Avg. Fuel Cost: $0.90/lbs
Total Gross Income: $32,857
Pilot Pay: $229
Total Expenses: $3,601
Total Revenue: $21,817
Average Revenue: $32,857.44